Wind_Speed
12 15 20 18 21 27 30 35 42 40 34 34 43 46 49 45 42 41 40 34 39 42 38 37 36 38 38 53 56 55 53 51 48 49 50 47 47 41 36 34 34 34 33 32
16 20 17 20 23 28 29 32 39 38 38 33 37 42 47 42 44 44 41 43 40 35 34 34 34 34 50 56 58 60 55 50 47 44 40 37 39 37 34 34 34 35 33 29
18 19 20 23 25 25 27 29 33 35 31 35 40 45 45 42 45 42 40 41 42 43 42 40 41 47 57 59 60 59 57 49 44 39 38 36 36 34 35 33 32 29 28 25
21 19 18 18 22 23 30 27 28 29 30 39 36 34 45 39 42 41 39 37 38 38 41 42 51 57 58 62 61 57 58 49 42 40 39 34 32 32 30 31 29 25 26 27
23 21 23 28 28 26 31 26 30 31 33 35 40 39 47 40 38 38 35 36 37 38 38 38 39 39 48 48 53 51 46 42 40 39 33 30 30 29 29 26 25 25 26 27
21 21 18 23 26 25 28 29 32 33 35 29 42 44 46 43 39 33 29 31 31 30 31 33 33 30 30 34 39 38 36 37 39 33 31 31 27 31 29 26 25 24 25 25
21 19 18 10 19 22 28 29 21 23 23 20 36 45 38 39 39 35 28 29 29 27 27 27 26 27 24 24 28 31 32 35 36 34 30 30 29 32 30 26 25 25 24 24
15 22 16 15 14 22 21 30 24 17 16 21 20 31 49 37 31 19 18 19 18 20 20 20 21 21 21 22 28 31 24 26 31 31 28 31 32 30 29 26 25 24 24 26
20 15 24 20 16 21 20 24 26 28 34 23 26 33 30 40 33 27 22 16 17 15 16 18 18 19 20 23 25 26 23 24 27 29 30 31 27 27 26 24 23 23 25 23
21 30 23 17 16 12 14 16 15 25 21 22 25 24 32 41 39 30 16 14 11 11 11 14 15 16 21 18 23 21 20 18 25 28 27 25 25 26 23 21 22 22 22 18
23 26 26 21 21 19 16 19 11 14 21 13 15 17 12 26 41 31 15 10 4 5 14 16 22 24 22 22 24 24 21 20 25 26 24 23 24 24 23 22 21 19 17 18
23 18 23 25 20 17 16 18 16 10 13 31 28 29 19 20 34 36 16 6 1 3 17 16 23 21 21 21 23 25 23 24 24 24 21 22 23 22 20 19 17 17 15 14
12 12 17 20 14 7 10 16 15 15 19 30 15 17 11 6 23 15 7 2 4 6 13 14 17 21 15 19 21 22 22 23 25 23 23 22 20 19 17 17 15 13 13 12
19 23 23 22 30 18 15 17 14 17 22 29 27 28 24 33 13 8 4 6 10 9 10 8 16 25 25 22 21 22 23 24 23 22 21 19 17 16 16 14 13 12 11 12
19 30 24 27 26 24 26 22 19 23 27 33 33 27 21 25 22 18 10 11 13 8 5 10 19 27 26 23 25 25 24 23 21 20 18 16 15 14 13 13 11 11 12 12
14 18 18 25 24 23 26 24 22 23 28 38 33 33 23 24 24 25 20 17 12 6 3 9 21 29 32 29 25 24 22 21 19 17 15 13 13 12 11 10 12 12 11 11
27 25 17 26 19 21 25 24 23 25 27 34 37 30 23 23 21 21 19 17 14 9 7 7 19 30 30 29 25 23 21 19 17 13 12 12 12 11 11 12 11 11 12 12
18 20 19 19 15 11 19 7 12 15 17 21 23 23 24 22 21 22 20 15 14 12 9 12 17 29 29 29 23 22 20 18 14 12 12 11 10 11 13 12 12 13 13 11
13 12 10 7 12 20 25 22 22 18 26 22 26 30 28 21 21 21 19 16 14 6 12 12 20 27 27 26 23 21 20 16 13 13 12 11 11 11 11 12 11 13 13 13
11 17 9 11 7 5 6 12 14 17 29 13 20 18 12 12 13 12 9 10 12 15 13 15 25 27 25 26 23 23 18 16 14 15 14 11 11 9 11 11 10 12 14 13
15 15 16 17 14 12 9 12 20 12 11 17 13 12 18 12 11 14 9 17 12 16 15 21 26 26 25 25 24 21 19 17 22 15 11 10 11 10 11 10 11 13 14 13
13 10 7 9 7 2 25 27 17 18 22 26 23 18 18 21 14 19 11 16 11 19 24 23 25 24 26 25 23 21 20 21 17 12 11 13 11 11 11 11 13 13 11 10
9 13 12 11 22 24 31 26 24 22 20 12 14 15 13 20 20 18 10 10 15 15 24 26 28 29 26 24 22 22 21 20 16 18 15 12 12 11 7 8 9 10 11 12
16 18 19 24 22 27 25 19 27 23 11 5 9 13 14 16 15 11 13 10 16 25 27 29 27 25 25 23 22 21 19 16 20 16 15 13 11 8 7 6 5 9 10 10
17 18 20 30 32 31 24 23 25 19 4 2 6 7 7 3 6 11 8 18 16 28 32 30 25 25 24 23 22 22 19 15 16 16 15 13 11 9 8 7 6 7 10 13
12 18 25 30 30 27 26 23 23 8 1 7 8 12 12 14 14 16 17 14 19 26 32 31 26 24 24 23 23 23 20 13 16 16 16 11 6 6 4 8 6 4 7 12
Wind_Direction
291 274 262 264 258 263 266 264 264 259 257 252 248 249 252 250 249 247 238 242 246 242 242 245 242 240 242 256 261 263 275 277 276 277 274 272 267 263 265 269 265 267 269 270
291 268 280 271 269 266 267 268 265 265 256 259 254 252 249 247 246 247 248 243 240 240 243 242 247 251 253 257 260 266 273 275 276 275 273 270 264 257 261 261 261 267 267 263
287 281 275 273 272 269 268 266 269 270 268 255 254 256 254 247 245 246 247 246 245 246 248 248 246 249 253 257 260 265 270 272 271 272 270 269 251 248 252 258 264 263 259 268
285 285 276 275 269 266 270 266 270 271 267 258 248 261 251 253 247 245 244 246 245 245 246 250 252 253 257 258 260 269 266 268 269 270 266 263 247 247 253 258 256 254 263 273
288 286 276 270 270 271 271 271 268 266 264 265 254 257 253 246 246 246 250 249 253 254 253 254 254 255 259 258 262 263 261 264 264 263 255 252 239 247 249 247 252 258 268 273
289 283 273 276 265 269 272 272 266 261 259 255 251 247 253 244 243 248 247 245 247 254 252 250 252 255 252 255 259 258 260 255 255 250 249 240 238 248 250 251 254 259 266 271
306 298 297 287 308 297 254 256 262 254 245 252 254 251 244 248 244 245 256 251 248 247 248 251 248 242 253 254 247 251 251 246 242 242 242 228 237 247 252 251 250 261 265 267
322 307 302 313 300 307 286 241 243 261 260 257 292 257 247 243 235 217 225 256 234 249 245 244 242 239 244 245 245 240 254 243 233 231 228 225 239 248 243 242 253 259 263 265
307 300 310 305 285 294 274 249 246 263 275 272 276 277 265 233 231 241 248 229 220 236 243 246 246 241 242 238 243 236 239 232 222 221 220 228 238 231 233 243 255 260 264 264
296 297 302 290 302 285 249 271 248 240 260 263 268 264 254 213 221 216 214 207 226 257 266 250 236 228 224 223 214 211 226 231 220 212 217 224 228 226 233 238 248 257 260 259
295 287 291 291 277 287 260 256 244 253 238 271 269 277 316 222 208 206 210 199 241 268 267 240 210 220 209 217 210 212 216 213 201 206 215 225 222 222 229 240 247 248 252 263
292 291 286 280 278 266 258 263 292 236 282 262 270 282 299 294 200 190 187 203 280 342 311 249 233 223 211 206 206 209 214 208 205 210 220 215 213 223 233 237 237 250 253 256
304 284 304 293 258 258 312 284 272 274 261 266 269 273 268 132 130 147 177 229 4 350 325 234 221 199 175 181 192 205 197 198 204 201 200 208 217 224 226 237 246 246 243 239
285 275 264 268 283 290 273 266 260 275 270 276 264 264 276 289 276 190 240 303 334 356 352 297 189 177 165 174 172 165 171 183 189 193 199 209 212 218 236 237 238 226 223 227
267 269 276 275 275 279 278 279 270 266 270 268 280 281 279 290 292 303 283 299 327 344 349 314 180 168 160 162 162 166 173 180 185 195 198 202 220 227 230 231 216 214 216 218
271 273 287 284 280 270 266 264 261 262 269 274 274 278 275 271 274 280 276 280 293 295 300 291 192 177 164 166 160 166 168 177 188 186 199 217 219 227 220 205 209 211 209 202
278 284 284 281 277 281 269 267 266 260 257 265 269 275 277 274 274 273 273 272 271 274 276 278 199 183 175 168 171 165 174 179 181 197 210 214 223 209 199 204 208 207 192 187
293 282 247 263 289 266 275 284 282 282 285 272 274 271 273 276 275 272 264 265 262 262 258 233 196 181 170 163 170 174 172 176 192 198 200 205 191 197 201 205 200 192 180 185
322 337 258 251 243 265 271 284 277 274 272 268 277 273 274 264 267 264 260 252 253 261 276 203 184 182 175 167 171 173 171 179 178 167 169 181 181 193 192 198 187 179 177 179
299 325 280 269 262 273 302 282 282 292 285 240 236 249 231 249 244 251 258 238 233 230 198 173 175 182 175 155 177 169 172 166 158 178 188 165 198 183 191 180 169 176 177 183
311 307 274 265 254 265 259 301 291 261 283 263 275 265 237 246 225 215 242 221 225 208 170 165 173 176 167 167 170 165 165 152 195 194 168 152 207 188 178 174 168 177 183 184
295 304 299 304 273 321 325 321 314 300 287 268 270 249 241 220 240 213 248 225 194 178 159 165 167 149 163 171 167 164 153 188 199 167 136 184 182 159 183 172 177 181 183 191
302 300 297 317 302 310 317 322 321 300 304 285 265 224 232 216 234 214 256 231 195 162 154 163 148 169 166 168 163 165 164 198 170 141 182 159 150 165 165 181 185 188 191 191
314 299 294 307 322 313 324 325 331 325 305 264 252 220 226 225 216 209 237 205 158 158 157 156 163 162 167 168 165 161 176 184 166 171 165 157 140 146 149 154 175 191 193 199
304 295 304 305 319 314 330 333 326 320 346 293 228 187 206 187 192 225 240 167 137 152 159 156 158 170 169 164 164 160 169 173 149 185 157 152 168 158 151 155 176 185 198 205
342 317 317 315 320 334 327 318 319 326 143 246 204 185 185 186 190 178 170 164 146 160 156 156 167 172 165 162 162 159 163 176 172 172 148 147 153 155 195 170 176 170 173 187
Height
3070 3068 3065 3064 3064 3061 3061 3059 3053 3051 3056 3058 3057 3052 3051 3061 3064 3064 3068 3072 3074 3078 3084 3088 3089 3087 3085 3089 3090 3093 3095 3097 3096 3097 3098 3098 3098 3099 3099 3100 3100 3099 3100 3100
3065 3061 3061 3061 3060 3058 3056 3054 3047 3049 3050 3052 3048 3043 3044 3051 3051 3056 3060 3062 3066 3069 3072 3075 3077 3077 3076 3081 3081 3082 3085 3086 3087 3087 3089 3090 3089 3089 3090 3092 3092 3093 3094 3094
3060 3059 3057 3056 3055 3053 3051 3049 3047 3045 3046 3046 3043 3036 3037 3039 3043 3046 3049 3051 3056 3059 3062 3065 3065 3066 3068 3069 3072 3073 3075 3078 3078 3080 3080 3080 3081 3083 3083 3085 3085 3087 3088 3089
3056 3054 3053 3051 3049 3049 3044 3046 3044 3042 3043 3036 3039 3025 3025 3031 3032 3036 3038 3043 3044 3048 3049 3050 3053 3056 3057 3058 3062 3063 3065 3068 3070 3071 3072 3072 3076 3077 3078 3079 3080 3082 3083 3084
3052 3049 3047 3044 3043 3043 3038 3040 3038 3036 3035 3033 3029 3023 3011 3023 3021 3026 3029 3033 3036 3038 3040 3042 3044 3045 3044 3048 3051 3052 3055 3057 3062 3062 3065 3066 3070 3071 3072 3073 3075 3077 3078 3078
3045 3043 3042 3039 3034 3035 3035 3034 3032 3029 3027 3018 3019 3018 3005 3012 3016 3019 3022 3025 3028 3029 3031 3032 3033 3034 3036 3037 3041 3042 3044 3047 3051 3054 3058 3060 3065 3065 3067 3068 3071 3072 3073 3073
3042 3038 3034 3035 3032 3029 3028 3029 3024 3018 3013 3002 3010 3008 3001 3006 3011 3013 3016 3017 3021 3022 3024 3025 3025 3028 3030 3030 3031 3032 3035 3038 3043 3047 3050 3055 3060 3060 3061 3065 3065 3067 3068 3068
3039 3037 3035 3031 3030 3026 3021 3020 3016 3011 3003 2999 3001 2991 2993 3001 3004 3005 3007 3009 3012 3014 3016 3017 3019 3020 3023 3023 3023 3026 3029 3032 3036 3041 3045 3050 3053 3055 3057 3059 3061 3062 3062 3063
3040 3035 3031 3028 3026 3025 3016 3014 3014 3012 3007 3002 3004 2994 2988 2993 2997 3003 3004 3004 3006 3009 3007 3008 3009 3012 3014 3015 3017 3020 3024 3026 3030 3035 3040 3045 3049 3050 3053 3055 3056 3057 3057 3060
3038 3030 3030 3024 3021 3018 3015 3013 3009 3007 3002 2994 2986 2978 2976 2981 2989 2996 2999 3000 3001 3002 3003 3003 3004 3007 3007 3010 3012 3016 3019 3022 3026 3031 3036 3041 3043 3045 3049 3051 3052 3053 3053 3055
3034 3030 3024 3020 3015 3013 3012 3007 3007 3007 3006 2992 2987 2977 2971 2973 2981 2990 2995 2996 2998 2997 2995 2993 2993 2997 3002 3004 3008 3012 3016 3019 3023 3028 3032 3035 3038 3042 3045 3047 3048 3049 3050 3050
3031 3024 3020 3014 3008 3007 3006 3005 3005 3004 3001 2994 2987 2976 2970 2968 2963 2985 2989 2994 2993 2992 2987 2986 2989 2994 2998 3001 3004 3008 3012 3016 3021 3025 3029 3032 3036 3039 3041 3043 3045 3046 3046 3046
3026 3022 3017 3008 3003 3004 3005 3004 3003 3001 3001 2991 2994 2984 2972 2975 2976 2984 2989 2990 2989 2989 2987 2982 2986 2990 2998 2999 3001 3004 3008 3013 3017 3022 3026 3030 3033 3035 3038 3040 3040 3041 3042 3042
3023 3018 3017 3011 3004 3003 3006 3002 3001 2997 2991 2979 2981 2983 2978 2966 2976 2988 2988 2987 2987 2987 2987 2980 2983 2987 2992 2997 3001 3004 3008 3011 3015 3019 3023 3027 3030 3033 3035 3035 3037 3037 3038 3040
3016 3010 3011 3005 3002 3001 2998 2995 2995 2993 2987 2979 2975 2980 2983 2979 2979 2975 2982 2985 2984 2985 2986 2981 2983 2985 2989 2996 3000 3004 3007 3010 3014 3018 3021 3025 3028 3029 3030 3032 3033 3034 3036 3037
3012 3007 3006 2999 2997 2995 2992 2989 2989 2988 2984 2967 2975 2974 2979 2980 2980 2979 2980 2982 2983 2983 2984 2981 2983 2985 2988 2994 3000 3003 3006 3009 3013 3017 3021 3023 3024 3025 3027 3029 3030 3033 3034 3036
3007 3004 3004 2994 2991 2987 2984 2981 2980 2979 2978 2969 2964 2969 2972 2972 2974 2975 2976 2978 2979 2979 2981 2982 2981 2984 2988 2994 2999 3002 3004 3008 3013 3016 3018 3019 3021 3023 3025 3027 3030 3031 3033 3034
3001 2998 2998 2992 2990 2985 2978 2977 2975 2973 2971 2970 2963 2966 2967 2968 2970 2971 2972 2974 2975 2976 2977 2975 2978 2983 2987 2992 2999 3001 3004 3009 3012 3014 3016 3017 3019 3021 3023 3026 3027 3029 3032 3034
2998 2996 2993 2989 2985 2980 2976 2975 2974 2974 2969 2970 2966 2961 2963 2965 2968 2966 2967 2969 2970 2971 2975 2971 2976 2982 2987 2992 2998 3000 3004 3008 3011 3014 3017 3016 3019 3020 3022 3024 3026 3028 3031 3034
2996 2993 2992 2986 2982 2976 2972 2969 2968 2970 2962 2960 2958 2958 2958 2962 2962 2965 2967 2967 2967 2963 2964 2968 2974 2981 2986 2991 2996 3000 3005 3009 3013 3016 3013 3017 3020 3019 3021 3023 3025 3028 3031 3034
2995 2990 2986 2982 2978 2972 2967 2966 2964 2964 2962 2954 2954 2956 2956 2957 2957 2956 2960 2960 2959 2961 2963 2967 2973 2980 2986 2992 2995 3000 3005 3011 3011 3012 3015 3017 3017 3019 3021 3022 3025 3028 3031 3033
2992 2988 2984 2979 2974 2965 2967 2961 2958 2955 2950 2948 2948 2948 2946 2947 2950 2952 2955 2957 2957 2959 2961 2968 2975 2979 2987 2991 2995 3001 3007 3010 3010 3013 3017 3018 3018 3021 3021 3024 3026 3029 3031 3033
2990 2987 2982 2982 2974 2968 2961 2955 2952 2945 2942 2941 2940 2940 2942 2945 2946 2950 2953 2954 2957 2957 2961 2969 2974 2981 2987 2991 2995 3001 3008 3008 3011 3014 3017 3017 3019 3021 3023 3025 3027 3029 3031 3033
2988 2984 2978 2973 2970 2963 2956 2951 2946 2941 2938 2935 2934 2936 2938 2940 2942 2946 2952 2951 2953 2957 2963 2969 2976 2982 2987 2992 2997 3003 3008 3008 3011 3015 3016 3018 3020 3022 3024 3025 3027 3029 3031 3033
2985 2980 2974 2967 2962 2955 2951 2946 2941 2936 2932 2932 2931 2933 2936 2939 2942 2947 2951 2950 2952 2957 2963 2969 2978 2985 2988 2992 2998 3005 3010 3009 3013 3014 3017 3020 3022 3024 3025 3026 3027 3028 3030 3031
2980 2977 2971 2963 2958 2953 2948 2942 2937 2932 2930 2929 2928 2930 2933 2937 2940 2944 2948 2950 2955 2960 2965 2972 2981 2986 2989 2994 3001 3007 3012 3012 3015 3016 3019 3022 3024 3026 3027 3026 3028 3028 3029 3031